Location: Be Tobo
(6.6442°N, 10.6239°W)
Time: 00:42:54
(UTC+00:00)

Cosmos 1674 Rocket - Pass Details

Date: 18 September 2020
Orbit: 603 x 630 km, 82.5° (Epoch: 20 October)

Event Time Altitude Azimuth Distance (km) Brightness Sun altitude
Rises 19:16:12 0° 355° (N) 2,904 7.1 -9.7°
Reaches altitude 10° 19:18:26 10° 355° (N) 1,997 6.3 -10.3°
Maximum altitude 19:22:52 87° 268° (W) 630 3.6 -11.4°
Drops below altitude 10° 19:27:17 10° 177° (S) 1,990 6.1 -12.5°
Sets 19:29:30 0° 177° (S) 2,892 6.9 -13.0°
